Theta_e
321 322 323 322 322 323 324 324 324 325 323 324 324 323 324 327 333 343 342 333 327 324 321 321 321 320 321 323 324 326 326 327 328 331 332 332 332 331 332 335 338 339 338 338 340 342 343 343 343 345 346 345 345 347 347 347 348 347 347 347 347 348 347 347 347 345 345 345 344 344 344 345 346 347
322 323 324 323 322 322 323 324 323 324 324 323 322 322 322 322 326 334 338 333 326 323 320 320 320 319 318 319 321 323 325 326 326 327 329 330 330 331 333 334 337 338 336 337 337 337 336 337 338 341 344 343 342 343 345 346 346 346 346 347 347 348 347 347 348 347 346 347 346 346 346 346 347 347
323 324 325 325 324 322 323 323 323 322 323 323 322 322 321 320 321 323 329 331 326 321 321 321 320 319 318 317 318 319 321 324 326 327 328 328 329 330 331 333 337 338 337 336 335 334 333 333 333 336 340 339 339 341 344 344 343 343 344 345 346 346 347 347 347 347 348 347 347 347 347 347 347 347
324 325 326 326 325 325 324 324 324 324 324 323 323 323 322 322 322 321 322 327 325 321 321 321 320 320 319 317 317 317 318 320 324 326 327 328 329 328 330 332 334 335 336 336 335 333 332 331 330 332 334 335 334 338 342 342 339 339 342 343 343 344 345 346 346 345 346 347 347 346 347 347 347 348
325 325 325 326 327 327 326 326 325 324 324 324 324 324 324 324 324 323 322 324 325 322 321 321 321 321 320 319 318 318 317 317 319 324 327 328 328 328 329 332 333 332 334 337 336 333 331 329 329 330 331 332 335 338 340 339 336 337 339 339 340 341 343 344 343 342 343 345 345 345 345 346 346 347
326 326 326 327 327 327 327 327 327 326 325 324 324 324 325 325 325 324 323 323 323 323 322 321 321 321 320 320 320 319 319 318 317 320 325 327 328 328 329 331 332 333 335 337 337 333 329 328 328 329 329 330 337 339 337 335 334 333 334 335 336 338 339 339 338 337 339 341 342 343 343 344 345 345
326 327 327 326 325 324 326 327 328 328 327 326 325 324 324 325 325 325 324 323 323 323 322 321 321 321 320 320 321 320 320 320 318 319 323 326 328 329 329 329 330 332 333 335 333 330 328 328 328 328 329 329 335 336 334 333 332 330 330 332 332 332 332 332 332 332 334 337 339 340 341 342 344 345
325 326 327 326 325 325 325 327 327 328 328 328 326 325 325 325 326 325 325 324 323 323 322 322 321 321 321 321 321 321 321 321 320 321 324 325 326 328 328 329 328 329 330 330 330 328 328 328 327 328 328 329 333 334 333 333 331 328 328 329 329 329 328 329 329 329 329 331 333 337 339 341 343 345
324 325 327 326 327 327 326 328 328 328 329 328 326 325 326 326 325 324 323 322 322 323 323 323 322 321 322 322 321 322 322 321 322 322 324 326 326 326 327 328 329 328 328 328 328 328 328 328 328 327 327 329 333 334 334 333 331 328 328 328 328 329 328 329 329 329 329 329 329 332 337 339 340 342
325 326 326 327 328 328 328 328 328 328 328 327 325 325 324 323 322 321 321 321 322 323 324 324 323 323 322 322 322 322 322 322 322 323 324 325 326 326 327 327 328 327 327 326 326 326 328 328 328 327 326 329 332 334 334 333 330 328 328 328 328 329 329 329 329 329 329 329 328 329 332 335 338 340
326 326 327 329 330 330 328 328 327 327 326 324 322 322 321 321 321 321 322 322 323 324 324 324 323 323 322 322 322 323 323 323 323 323 325 325 325 325 325 326 327 327 328 327 326 326 326 326 328 328 327 329 331 333 334 333 330 329 328 328 328 328 329 329 329 329 329 329 329 328 329 331 334 338
327 328 329 330 330 329 328 327 326 326 326 325 322 322 322 322 322 322 323 323 323 323 323 323 323 323 323 323 323 323 324 324 324 324 325 325 325 324 325 324 325 327 327 329 328 327 325 324 325 327 329 330 332 333 333 332 330 329 330 329 329 328 329 329 329 329 329 329 329 329 328 328 329 333
327 329 330 330 328 327 326 326 325 325 325 326 325 324 324 323 322 323 323 323 323 323 323 323 323 324 324 324 324 324 324 324 324 324 324 325 325 324 324 323 324 326 327 327 328 327 326 325 324 325 328 330 331 332 332 332 331 331 331 330 330 330 329 329 329 329 330 329 330 330 329 329 328 328
325 326 327 326 325 324 324 323 323 322 322 324 325 324 323 323 322 322 322 323 323 323 324 324 324 324 325 325 324 324 324 323 323 324 324 324 325 324 323 323 325 327 327 326 327 327 327 326 325 325 327 329 331 331 331 331 331 331 331 331 331 331 331 330 330 329 329 329 330 330 330 330 330 329
324 324 323 323 323 323 323 322 321 320 320 321 321 321 321 321 322 323 323 323 323 323 324 324 324 324 324 324 324 324 324 323 323 323 324 324 324 324 324 324 325 326 327 326 325 326 327 327 327 327 328 329 329 329 329 329 329 330 330 330 330 331 331 331 330 330 330 330 330 330 330 330 330 330
323 323 322 323 324 323 322 321 320 320 320 320 320 320 320 321 321 322 322 322 323 323 323 323 323 323 323 323 323 323 323 323 323 323 323 323 323 323 323 324 324 325 325 324 323 324 326 327 327 328 328 329 329 328 327 328 328 328 329 329 329 330 330 330 330 330 330 330 330 330 330 330 330 329
323 322 323 324 324 323 322 320 320 320 320 320 320 321 321 321 320 320 320 321 322 322 322 322 322 322 322 322 323 323 322 323 323 323 323 323 323 322 323 323 323 323 323 323 321 321 323 324 324 326 327 328 328 327 327 327 328 328 328 328 329 329 329 329 329 330 330 329 330 330 330 330 330 329
323 322 323 324 323 322 321 321 321 321 321 321 321 321 320 320 319 320 320 320 320 321 322 322 322 322 322 322 322 322 321 322 322 322 323 323 322 322 322 323 322 322 322 321 321 321 321 322 323 324 326 326 327 327 327 327 328 328 329 328 328 329 329 329 329 329 329 329 329 330 330 330 330 330
323 322 322 323 323 322 322 322 322 323 322 322 321 320 320 319 319 320 320 320 320 321 322 322 322 322 322 321 321 321 321 322 322 322 322 322 322 322 322 322 322 322 322 321 322 323 322 322 325 327 327 327 328 328 329 329 329 329 329 329 329 329 329 329 329 329 329 330 329 329 329 330 330 330
322 322 323 324 323 322 322 323 322 322 322 321 320 320 320 320 320 320 320 320 320 320 320 321 321 321 321 321 321 321 321 322 322 322 323 323 323 323 323 323 322 322 322 321 322 324 324 324 327 328 328 328 329 329 330 330 329 329 329 329 329 329 330 329 329 329 329 329 329 330 329 329 330 330
321 322 323 324 323 322 322 322 321 321 321 320 320 321 321 320 320 320 320 320 320 320 320 319 320 320 321 321 321 321 321 321 322 323 323 323 323 323 323 323 322 322 321 321 322 323 325 326 327 328 328 329 330 330 330 330 330 330 330 330 330 330 329 330 330 330 329 329 329 330 329 329 330 330
321 322 323 323 323 322 322 322 321 321 321 320 320 320 320 320 320 321 321 320 320 320 319 319 319 320 321 321 321 321 321 321 322 323 323 323 323 323 323 322 322 321 322 322 323 323 324 326 327 328 328 329 330 330 330 330 329 329 329 329 329 329 328 328 329 329 329 329 329 329 329 329 329 329
322 322 322 323 322 322 322 321 321 321 320 320 321 320 320 320 321 321 321 321 321 321 320 320 319 320 321 321 321 320 320 321 322 322 323 324 323 323 323 323 322 321 322 323 324 324 325 325 326 327 328 330 330 329 328 329 328 328 328 327 327 327 327 327 327 327 327 327 328 328 328 328 328 328
322 322 322 322 321 321 321 321 321 321 321 320 320 320 320 321 321 320 321 321 321 321 321 320 320 320 321 320 320 320 320 320 320 321 322 323 323 322 322 323 323 322 322 323 323 324 326 325 326 326 327 330 329 326 324 326 325 324 325 325 325 326 326 326 326 326 326 327 327 327 328 328 328 327
322 322 321 320 320 320 320 320 320 320 320 320 320 320 320 320 320 320 320 320 321 321 321 320 320 320 320 320 320 320 320 320 321 321 321 322 323 322 322 322 323 322 322 322 323 325 325 325 324 324 325 327 327 322 321 321 321 320 322 323 323 324 324 325 324 324 324 325 325 326 326 326 327 327
321 321 321 320 320 320 320 320 320 319 319 319 319 320 320 319 319 319 320 320 320 321 321 320 320 320 320 320 321 320 321 321 322 322 322 322 322 322 322 322 322 322 323 323 324 325 325 325 324 324 324 327 326 322 319 318 318 318 320 321 321 322 322 324 324 324 323 323 323 324 324 325 325 325
320 320 321 320 319 320 319 319 319 319 319 319 319 319 319 318 318 319 320 320 320 321 321 320 320 320 321 321 321 320 321 322 322 322 322 321 321 322 322 323 323 323 324 324 325 325 325 325 326 326 325 327 327 323 320 318 317 317 317 318 319 320 321 322 322 321 321 321 321 323 324 325 325 325
320 321 320 319 319 319 319 319 319 319 319 319 318 318 318 318 318 319 319 319 320 320 321 321 320 320 321 321 321 321 321 322 322 321 320 320 320 320 321 322 322 322 323 324 325 325 325 325 327 327 326 326 326 322 319 318 317 316 316 316 317 318 319 320 319 319 320 320 321 322 323 324 324 325
320 320 320 319 319 319 319 320 319 318 318 318 318 318 317 317 318 319 319 319 319 320 320 320 321 321 321 321 321 321 321 322 322 321 320 319 318 318 319 320 321 321 323 325 325 325 325 325 327 327 325 325 324 321 319 318 317 316 315 315 314 315 317 318 318 318 318 319 320 320 321 321 321 322
320 319 319 319 319 320 319 320 319 318 317 317 317 317 317 317 318 318 319 319 319 319 320 320 321 321 321 321 321 321 321 322 322 321 319 318 317 317 318 318 318 319 322 324 324 325 326 326 326 325 323 322 320 319 318 317 315 314 314 314 313 313 314 315 316 316 316 316 317 318 318 318 319 320
319 319 319 319 319 319 319 319 319 318 317 317 317 317 316 317 317 318 318 318 318 319 320 320 321 321 321 321 322 322 322 321 321 320 319 318 317 317 317 316 316 316 318 319 320 322 324 324 323 322 321 318 316 316 315 314 313 312 312 312 312 311 311 312 313 313 313 314 315 316 316 317 317 318
319 319 319 320 319 318 317 318 319 319 317 316 316 317 316 316 316 317 317 318 318 319 319 320 320 320 320 321 322 322 321 320 320 319 319 318 317 316 316 316 315 314 314 315 316 318 319 319 319 318 317 315 313 313 312 312 311 310 310 310 310 310 309 310 311 310 311 313 314 314 314 315 316 318
319 319 319 320 320 318 318 319 320 319 318 316 316 317 316 316 317 317 317 317 318 318 319 319 320 320 320 320 321 321 320 319 319 319 319 318 317 316 316 316 315 314 313 313 313 313 314 315 315 315 314 313 312 312 311 310 309 309 309 309 309 309 308 309 309 310 311 311 311 310 311 312 314 316
319 319 319 320 320 320 320 320 320 320 319 318 317 316 316 315 316 316 316 316 317 317 317 318 318 318 318 319 319 319 319 319 319 319 318 318 317 317 317 316 315 315 314 314 312 312 312 312 313 313 312 312 311 311 310 309 308 308 308 308 308 308 307 308 308 309 309 310 309 309 309 309 311 313
318 318 319 319 320 320 320 320 320 319 319 319 318 317 315 315 315 316 315 316 316 316 316 316 316 316 317 318 318 318 318 318 318 318 318 317 317 317 316 316 315 314 314 314 314 313 313 312 312 312 311 310 310 309 309 308 308 308 307 307 307 307 307 307 307 307 308 308 308 308 308 307 308 310
318 318 319 319 320 320 320 320 320 319 318 318 318 316 315 315 315 315 315 315 315 316 316 315 315 315 316 316 317 317 317 317 316 316 316 316 316 316 315 315 314 314 313 313 313 314 313 313 313 312 311 310 309 308 308 307 308 308 308 307 307 306 306 306 306 306 306 306 306 307 307 307 307 307
319 319 319 319 320 320 320 319 319 318 318 317 317 316 315 314 314 314 314 315 315 315 315 315 315 315 315 315 315 315 315 315 314 314 314 314 314 314 314 314 313 313 312 312 312 313 313 313 313 312 311 310 309 309 308 307 307 307 307 307 307 307 306 306 306 306 305 305 305 306 306 306 306 306
318 318 319 320 320 319 319 319 318 318 317 317 316 315 314 314 314 314 314 314 314 314 314 314 314 314 314 314 314 314 314 313 313 313 313 313 312 312 312 312 312 312 311 311 311 311 312 312 312 312 311 310 310 309 308 306 306 306 307 307 307 307 306 306 306 306 305 305 305 305 305 305 305 305
317 317 318 319 320 320 319 319 318 317 316 315 315 314 313 313 313 314 313 314 313 313 314 314 313 314 314 314 314 314 314 314 314 313 313 312 312 312 312 312 311 311 311 310 310 310 310 310 310 309 309 309 308 307 306 305 305 305 306 307 307 307 307 307 306 306 306 306 305 305 305 305 305 305
317 316 317 318 320 319 318 318 319 317 315 314 313 313 312 313 313 313 313 313 312 312 313 313 313 313 313 313 314 314 314 314 314 314 314 313 313 313 312 312 311 311 311 310 310 309 309 308 308 307 307 306 306 305 305 305 304 304 305 305 306 307 307 307 307 306 306 306 306 306 306 306 306 306
318 317 317 318 319 319 318 318 318 317 316 315 314 313 312 313 313 313 312 312 312 312 312 312 312 312 312 313 313 313 313 313 313 313 313 313 313 312 312 312 311 311 311 310 310 309 309 308 307 307 307 306 306 306 306 305 304 303 303 304 305 306 307 307 307 306 306 306 306 306 305 305 305 305
318 317 317 317 318 319 318 318 318 317 317 316 315 313 312 312 312 312 311 311 311 311 311 311 311 312 312 312 312 312 312 312 312 312 312 312 311 311 311 311 311 310 310 310 310 309 309 309 308 308 308 307 307 306 306 305 304 303 303 303 303 303 305 306 306 306 307 307 307 307 306 307 305 304
318 317 317 317 317 318 318 318 318 317 317 316 316 314 312 312 312 312 311 311 311 311 311 311 311 311 311 311 311 311 311 311 311 311 311 311 311 311 311 310 310 310 310 309 309 309 309 308 308 308 308 307 307 306 306 305 304 304 303 303 302 302 302 303 304 305 306 306 306 307 307 307 306 304
318 317 317 317 317 317 318 318 318 317 316 316 315 313 312 312 312 312 311 311 311 311 311 311 311 311 311 311 311 310 311 311 311 311 311 311 311 311 311 311 310 310 310 309 309 309 308 308 308 308 307 307 307 306 305 305 304 304 304 303 303 302 301 302 302 303 303 304 304 305 306 306 305 304
318 317 317 317 316 316 317 317 318 317 317 316 315 313 313 312 312 311 311 311 311 311 311 310 311 311 311 311 310 310 311 311 311 311 311 311 311 311 311 310 310 310 310 309 309 309 308 308 307 307 307 306 306 306 305 305 304 304 304 303 302 302 301 301 301 301 301 301 301 302 303 303 303 303
Wind_Speed
8 6 7 8 9 8 8 8 9 9 10 10 11 11 9 4 1 1 1 1 2 9 13 12 14 17 16 14 13 12 11 9 6 3 4 6 8 8 7 7 6 5 6 6 6 6 7 7 7 6 6 10 15 19 21 23 26 27 26 25 25 26 27 30 31 32 34 35 35 36 35 36 35 33
7 5 6 9 10 8 7 8 8 9 10 10 10 11 10 9 5 1 0 1 2 6 12 14 15 17 17 16 14 13 11 11 8 5 3 4 5 6 7 8 8 7 8 9 8 7 7 7 7 6 5 7 10 11 11 12 14 16 18 21 22 24 28 30 32 33 33 33 33 33 33 32 31 30
6 4 5 8 9 9 8 9 9 9 10 10 10 10 9 10 10 6 2 1 2 6 10 13 16 17 18 17 16 14 12 11 10 7 4 4 4 5 6 8 10 10 10 12 11 9 8 7 8 7 5 7 8 7 5 5 6 8 11 15 16 19 22 26 28 28 29 30 31 32 32 30 30 32
6 3 4 7 8 8 8 8 9 9 9 9 9 9 9 10 10 10 7 2 1 5 9 11 14 16 18 18 18 17 14 11 9 8 6 4 4 4 4 6 9 11 12 14 14 13 11 9 9 7 6 6 6 5 3 2 3 4 6 8 10 12 15 17 19 20 21 23 25 27 29 29 30 32
5 3 4 6 7 7 7 7 7 7 7 7 7 7 8 8 8 8 8 4 2 5 9 10 12 15 17 18 19 19 18 15 10 7 6 4 4 4 4 4 7 10 13 15 15 14 13 10 8 7 6 7 5 5 4 1 1 2 5 5 6 7 9 8 8 10 12 14 16 19 23 27 30 31
4 4 5 7 8 8 9 8 7 7 7 7 7 7 6 7 7 6 7 5 2 4 9 11 12 14 15 17 17 18 19 18 13 8 6 4 4 5 5 5 6 8 12 14 14 13 11 10 8 7 7 8 9 7 7 4 2 5 8 8 7 7 6 5 4 5 7 9 11 13 15 20 25 29
3 4 6 7 8 9 10 10 9 9 9 8 8 7 7 6 6 6 7 6 4 5 7 9 11 13 15 15 15 16 17 15 12 9 8 6 5 7 7 8 8 9 10 13 13 12 10 10 8 8 8 10 11 12 10 7 6 8 9 7 8 8 6 6 5 4 5 6 8 9 10 12 15 20
4 5 6 6 7 9 10 10 10 11 10 8 7 6 6 5 6 8 9 9 8 7 8 10 11 11 12 14 15 16 15 12 9 9 9 8 7 8 9 9 10 11 11 12 14 13 11 10 9 9 10 11 13 14 12 10 10 10 9 7 7 8 7 6 5 5 6 6 6 7 8 8 8 11
5 7 6 5 7 9 10 9 9 10 9 8 6 5 6 7 10 12 13 13 13 12 13 15 14 12 11 14 15 14 11 10 9 8 8 8 8 8 9 10 10 11 11 11 12 12 10 9 9 10 11 12 13 14 13 12 12 12 11 10 10 9 8 7 7 7 7 8 7 7 8 9 8 8
7 7 5 4 6 8 8 7 7 7 7 7 7 7 9 11 13 14 15 16 16 16 16 17 17 15 13 14 15 12 9 9 10 8 6 6 6 6 7 8 9 10 10 10 10 11 10 10 9 10 11 12 12 14 13 12 13 14 14 13 13 11 10 9 8 7 7 8 8 9 9 9 10 9
8 8 5 3 4 6 6 7 7 7 7 7 9 10 11 13 14 15 15 15 15 15 16 15 15 15 15 14 13 12 9 7 7 6 5 5 5 5 5 6 7 8 10 10 10 10 11 11 11 11 11 12 13 14 14 14 14 14 14 14 14 13 11 9 9 8 7 7 8 9 10 10 10 10
8 5 2 1 4 6 7 8 8 9 9 9 10 11 12 13 14 14 13 12 11 11 12 13 14 13 13 11 9 10 9 6 5 5 4 5 6 7 7 6 7 8 9 10 10 10 11 11 11 12 12 13 14 15 15 15 15 15 14 14 13 12 11 10 9 9 8 8 8 9 10 10 10 11
6 3 0 2 4 6 7 9 10 11 11 10 10 11 11 12 13 12 10 9 9 8 8 9 10 10 9 8 7 7 8 7 6 6 6 6 6 7 7 5 7 8 8 9 11 11 11 12 13 13 13 13 14 15 15 15 16 15 14 14 13 12 11 10 10 10 11 11 10 9 10 10 10 11
7 5 2 2 5 7 9 11 13 14 13 10 9 10 11 12 13 12 10 10 10 9 8 7 7 8 9 9 7 6 6 7 6 5 5 6 6 6 6 4 7 9 8 8 10 11 12 14 15 16 15 14 14 14 14 13 13 13 12 11 11 11 12 12 12 13 14 14 13 12 11 11 11 12
8 4 3 5 8 10 12 14 15 15 13 11 11 12 12 13 13 12 12 12 11 10 9 9 8 8 8 9 9 7 6 7 6 5 5 6 5 4 4 3 4 7 7 6 8 11 13 14 16 17 17 14 13 13 12 9 9 9 9 9 9 10 11 12 13 14 15 16 16 15 14 13 12 12
6 3 5 8 10 12 14 14 15 14 12 11 12 12 12 12 12 12 12 12 12 11 10 10 9 9 9 11 10 8 8 8 8 8 7 7 6 5 4 4 4 6 6 5 7 10 13 14 16 18 17 15 12 12 11 9 7 6 6 7 8 9 10 11 12 13 15 16 17 17 16 15 13 13
4 3 7 10 12 13 14 13 13 13 13 12 12 12 13 13 13 12 12 11 12 12 11 10 11 10 11 12 11 10 11 11 11 10 8 7 7 6 6 7 7 7 7 6 8 10 12 13 15 17 15 14 13 12 11 10 8 6 6 7 9 10 11 12 13 14 15 16 17 17 16 15 14 13
5 5 9 12 13 14 13 12 11 12 13 13 13 13 14 14 14 12 12 12 12 12 11 11 13 13 13 13 13 12 13 12 12 12 11 9 8 8 8 8 8 9 10 9 8 9 11 11 11 12 12 12 12 11 10 10 9 7 7 8 9 10 11 12 13 14 14 15 16 16 16 15 15 15
6 7 10 11 12 12 12 12 12 12 12 12 13 14 16 17 16 13 12 13 13 13 12 13 15 16 15 14 14 13 13 13 13 14 14 12 11 10 10 9 9 10 11 11 8 7 9 8 7 8 8 8 9 9 8 8 8 7 7 8 9 10 11 12 13 13 14 15 16 17 17 17 16 16
8 8 8 9 11 11 11 11 11 11 11 12 14 15 16 17 17 15 15 15 13 12 13 13 15 16 16 14 14 13 13 13 13 13 13 12 9 8 8 8 9 9 10 10 9 8 8 8 6 6 5 6 7 7 6 6 6 6 6 6 7 8 9 11 12 12 13 14 16 17 17 17 18 17
8 8 8 9 10 11 11 11 11 12 13 14 14 14 15 15 15 14 16 17 15 13 14 14 14 14 14 12 11 11 11 11 11 11 12 10 7 6 6 6 7 7 7 8 10 8 7 7 6 5 5 5 5 5 4 4 4 5 4 4 4 5 6 8 10 10 11 12 14 15 16 16 17 18
8 9 10 10 11 11 11 11 12 13 15 15 15 14 15 14 14 14 15 18 18 16 15 14 13 11 10 9 9 9 9 9 8 8 8 7 5 5 5 5 5 5 5 6 8 8 7 6 6 6 5 3 3 4 3 2 3 4 3 2 3 3 4 5 6 7 9 11 12 14 14 15 16 17
10 12 13 12 12 13 12 12 12 14 14 15 14 14 14 14 15 15 16 17 17 15 14 15 13 10 8 7 7 8 8 7 6 5 5 4 4 6 7 6 4 3 3 5 7 8 7 6 7 7 5 3 3 4 3 2 3 3 3 3 3 3 3 3 4 5 7 8 10 12 14 15 16 17
12 13 13 13 13 13 13 13 13 13 13 14 14 14 14 15 16 17 16 16 15 14 13 13 13 10 8 7 7 7 6 6 6 5 5 4 3 4 5 5 5 3 2 5 7 7 5 6 8 7 5 4 4 6 9 8 7 7 6 7 8 7 5 4 3 2 2 3 4 7 10 12 14 15
12 12 13 13 13 13 14 15 14 13 13 14 14 14 13 14 15 15 15 14 14 13 12 12 12 10 8 7 7 6 6 6 6 5 5 5 5 4 3 3 5 5 4 3 4 4 3 4 6 5 5 5 6 11 14 14 12 10 9 10 10 9 7 6 5 4 4 3 2 2 3 6 9 9
12 11 12 13 13 13 14 14 13 12 13 14 14 13 12 13 14 14 14 14 14 14 12 11 11 11 9 8 8 8 7 6 6 6 5 5 5 4 2 0 3 5 5 3 3 3 2 3 4 5 5 4 8 14 14 10 9 9 10 10 10 10 9 7 6 6 6 7 7 6 5 4 5 5
10 11 12 13 13 13 12 13 12 12 13 14 13 12 12 14 14 13 14 15 15 15 13 12 11 11 9 8 8 9 8 7 6 6 6 5 5 4 2 2 3 3 2 2 3 3 3 2 2 4 5 6 10 12 9 7 7 9 11 11 11 11 10 9 8 9 8 8 9 8 7 7 7 5
9 10 11 12 12 11 11 11 12 13 14 15 14 13 14 15 15 14 15 15 15 15 14 12 11 10 9 8 8 9 8 7 6 6 7 6 5 4 3 1 2 2 2 2 2 2 2 2 2 2 5 9 11 10 8 8 9 10 12 13 12 12 11 10 11 11 10 9 9 9 9 9 9 7
9 9 10 10 10 10 11 12 14 14 15 15 15 15 16 16 14 14 15 16 15 15 14 12 10 9 8 6 7 6 5 5 6 6 6 7 6 5 5 5 5 4 5 4 2 2 2 2 2 3 5 9 11 11 12 13 11 9 11 13 14 14 13 12 11 12 12 11 11 11 11 11 10 9
9 9 9 9 10 10 11 13 14 15 16 16 16 16 17 16 13 13 15 15 15 15 13 11 10 9 7 6 5 5 5 6 7 7 7 9 9 9 10 11 13 12 11 8 5 4 4 5 7 10 11 13 13 14 16 17 15 12 10 11 12 12 13 14 13 13 14 14 14 13 13 12 11 10
9 9 8 8 9 12 13 15 16 17 18 18 17 17 16 15 14 13 13 14 15 15 13 10 9 9 9 8 7 6 7 8 9 8 10 12 13 12 14 17 19 19 18 16 13 11 11 12 15 17 19 20 19 18 18 19 19 16 12 11 11 9 10 11 12 12 13 14 15 15 14 14 13 11
8 8 9 9 11 14 17 18 18 18 19 19 18 17 16 15 15 13 12 13 15 14 12 10 10 11 11 10 8 9 11 12 11 10 11 14 15 14 17 19 20 22 23 24 23 20 18 19 21 22 24 24 22 20 21 21 19 16 13 11 11 10 9 8 9 9 10 13 15 16 16 16 14 13
7 9 11 12 13 15 17 17 16 16 17 18 18 17 16 15 14 13 12 13 15 14 13 12 11 11 11 10 9 11 13 14 12 11 13 16 18 18 19 20 19 20 22 24 26 26 25 25 25 26 26 26 23 21 21 20 18 15 12 9 9 10 9 8 9 9 9 11 13 16 18 19 17 14
8 11 13 13 14 15 15 14 13 14 15 16 15 15 16 15 13 12 12 13 14 14 14 14 13 12 11 10 9 11 13 12 12 12 13 16 18 17 18 18 18 17 18 18 19 22 24 26 29 29 29 29 28 25 22 19 16 13 11 10 10 11 10 9 10 11 10 10 11 13 16 19 19 17
9 11 13 14 16 16 13 12 12 13 14 15 14 15 15 15 14 13 13 13 13 13 14 14 15 14 13 11 10 10 10 10 11 12 13 15 16 15 15 15 14 14 14 13 12 12 13 16 20 23 22 23 25 24 22 19 14 11 11 11 11 11 11 10 10 13 13 12 11 13 16 18 20 19
8 10 12 14 15 15 12 11 12 13 14 15 14 14 15 14 13 13 13 13 12 12 12 13 14 15 15 12 11 10 10 10 11 12 12 13 13 13 12 12 11 11 11 11 10 9 8 9 12 14 13 13 13 13 15 17 15 12 12 12 11 10 11 11 13 16 16 15 14 15 17 20 21 20
9 10 11 13 13 13 13 12 12 13 13 13 13 13 14 13 12 12 12 12 12 12 12 12 12 14 14 14 13 13 12 12 13 13 12 12 13 12 12 11 11 10 10 11 11 11 10 10 10 10 10 10 9 8 10 16 18 15 12 11 11 11 11 13 15 17 17 17 17 16 17 20 21 21
9 10 12 13 12 11 12 13 12 13 14 13 12 13 13 12 11 11 11 11 12 12 12 11 11 11 12 14 15 16 16 15 15 14 14 14 15 15 14 12 11 11 10 11 11 11 12 13 11 10 11 11 8 6 7 12 18 18 14 11 11 12 12 12 14 15 15 17 18 17 17 19 21 22
7 9 11 12 11 10 11 11 11 12 13 14 13 13 12 11 11 11 10 10 10 10 10 11 11 10 11 12 13 14 15 15 14 13 14 14 13 13 13 12 12 12 13 14 13 13 14 14 13 13 15 16 13 12 13 15 19 20 18 14 12 12 12 12 12 13 13 14 16 18 21 22 23 25
5 6 8 10 10 9 9 10 10 11 12 13 14 14 13 12 11 11 11 11 11 10 10 10 10 10 11 12 11 11 12 13 12 11 12 12 11 11 12 13 14 14 16 18 17 17 18 18 18 19 22 23 21 20 21 22 22 23 23 20 16 13 13 12 11 11 12 13 14 17 18 19 20 22
4 4 6 8 9 9 8 9 10 9 10 11 13 14 13 12 12 11 12 12 12 11 10 10 10 10 10 10 9 10 11 11 11 11 12 12 13 12 13 14 14 15 16 17 17 17 18 19 19 20 20 19 17 17 18 18 18 20 23 22 19 17 15 13 13 13 13 14 15 15 14 16 18 18
2 3 4 5 7 7 7 8 9 9 9 10 11 13 13 13 12 13 13 14 13 12 11 11 11 10 10 10 10 11 11 12 12 12 12 13 13 13 14 14 14 14 15 15 15 14 14 12 12 13 13 12 13 15 16 14 14 17 20 22 22 22 20 17 15 14 12 11 11 10 8 8 11 12
1 2 2 3 4 5 6 7 8 8 9 10 10 11 12 12 13 14 14 15 15 14 13 12 11 11 11 11 11 11 12 13 13 13 13 13 13 13 14 15 15 15 16 15 14 14 13 12 11 12 13 14 15 17 17 16 17 18 19 20 21 23 24 24 23 22 20 17 14 11 8 8 8 9
3 0 1 1 3 4 5 6 7 8 9 10 10 11 12 13 13 13 14 15 15 15 14 13 12 13 13 13 13 13 13 13 13 13 14 14 14 14 15 15 15 15 15 15 15 15 15 15 15 16 17 17 16 18 19 19 18 18 18 17 17 19 21 25 27 27 27 26 24 20 19 19 18 16
6 3 0 1 2 2 3 4 6 7 8 9 9 10 12 12 13 13 14 14 15 16 16 15 14 14 14 14 15 15 14 13 14 14 14 14 15 16 16 16 15 15 15 15 16 15 16 17 19 20 21 20 19 20 20 19 18 18 18 18 19 20 23 27 29 28 27 27 26 24 23 22 21 19
Wind_Direction
28 38 46 47 52 55 58 62 63 61 56 52 47 43 43 47 78 234 22 24 23 31 34 30 24 24 23 22 24 23 22 21 15 351 316 296 294 292 276 263 259 256 257 260 260 255 249 251 254 245 234 236 240 243 246 248 249 248 244 241 239 240 240 240 240 242 242 241 241 243 245 245 244 244
22 36 47 45 48 51 52 55 57 56 52 50 47 45 44 46 58 123 176 54 20 20 26 26 19 15 14 10 9 10 11 11 7 357 333 307 299 292 269 250 239 235 237 242 246 245 240 249 259 255 243 246 250 252 254 256 258 254 244 237 235 237 237 237 239 240 240 240 241 243 245 246 246 245
11 28 46 44 46 50 48 49 50 49 48 46 47 49 48 49 53 59 82 101 29 16 17 20 16 11 8 3 359 357 357 359 0 357 343 316 302 299 280 250 233 227 230 235 237 238 234 235 250 256 254 261 268 272 271 268 265 251 236 232 233 233 233 235 238 239 239 240 241 241 242 243 244 244
7 25 41 35 35 38 36 36 38 38 37 36 38 42 46 51 49 48 57 73 4 12 11 10 10 6 1 358 354 350 346 344 345 346 344 325 298 299 298 263 241 231 228 229 229 235 240 240 247 253 250 258 277 284 270 272 276 242 222 225 230 227 227 235 241 239 237 239 240 239 238 239 242 244
10 18 25 21 15 11 7 5 9 10 13 16 19 21 28 40 41 39 45 45 344 356 1 359 359 358 356 353 350 347 343 338 332 326 327 322 297 282 279 265 250 236 228 226 226 231 239 241 245 252 245 234 242 262 253 204 91 177 170 175 194 204 211 221 230 228 226 227 229 232 234 236 239 240
17 9 4 7 4 359 354 351 348 343 339 340 349 356 1 13 24 27 30 27 341 325 338 344 346 348 348 347 345 343 340 336 329 309 292 290 269 245 233 229 236 231 223 221 222 227 234 235 234 242 251 233 213 222 235 217 152 150 152 150 150 157 167 168 170 195 209 216 224 232 238 239 240 238
353 353 354 359 0 357 352 350 349 344 334 321 321 334 343 355 7 11 8 1 333 303 314 325 329 334 336 335 334 335 334 330 318 293 273 264 238 218 209 204 207 212 215 216 218 226 237 244 240 235 247 240 214 210 218 212 186 168 163 157 151 153 157 157 163 187 206 219 229 237 245 248 245 240
317 326 335 345 353 354 351 349 351 352 345 330 322 328 336 345 352 350 346 341 331 315 307 311 314 319 325 324 324 328 326 317 297 271 260 256 243 230 218 206 199 199 204 210 216 227 238 245 248 241 245 242 220 210 210 207 198 186 179 177 176 175 176 177 189 203 216 231 235 234 240 247 247 240
317 319 321 331 344 348 353 358 1 2 1 358 357 356 346 341 339 336 333 329 325 317 309 310 312 312 316 320 321 324 323 310 293 269 254 249 245 242 229 218 210 203 203 206 211 223 233 237 243 242 246 247 226 211 208 206 200 188 184 192 199 202 203 206 211 212 217 232 242 240 236 236 240 236
318 315 306 320 342 345 351 5 11 11 12 11 7 356 343 336 331 326 323 320 317 314 310 309 309 310 315 318 318 323 326 313 302 292 279 262 251 252 241 228 224 220 220 218 214 220 229 236 245 244 248 253 235 215 209 206 200 190 187 194 200 205 211 221 227 224 221 229 242 245 240 237 238 235
315 309 296 315 3 16 19 26 27 20 14 6 357 348 338 332 326 320 318 318 317 315 312 308 306 308 312 313 315 325 335 324 311 308 302 296 290 288 276 248 236 231 230 229 225 225 226 231 241 244 247 252 242 222 212 208 205 200 196 197 200 201 205 216 229 236 236 234 239 245 245 242 241 236
316 308 295 25 52 52 42 36 31 24 14 1 352 343 335 329 324 321 322 323 323 320 314 311 310 311 311 312 323 343 354 349 335 326 309 305 315 317 307 278 252 243 237 233 232 233 233 233 236 238 239 241 237 227 218 213 211 211 209 207 205 204 202 207 220 234 244 244 240 242 246 246 244 241
332 327 349 66 56 44 34 26 17 10 4 358 352 343 337 332 329 328 330 329 327 320 307 304 309 313 314 320 337 353 356 351 338 324 304 291 302 318 317 285 248 245 243 238 235 235 236 237 237 239 239 234 229 225 221 219 219 219 219 218 217 216 212 209 214 228 242 247 242 239 245 249 247 242
337 339 339 27 31 17 9 3 357 351 348 350 351 347 344 340 335 332 332 331 328 321 312 304 304 308 310 317 329 335 339 345 339 327 310 293 292 312 317 278 235 237 242 245 243 237 233 235 236 238 240 236 229 225 223 224 224 223 222 223 224 225 224 222 221 227 237 244 244 242 242 245 248 247
336 351 22 23 16 6 359 352 344 340 339 340 343 344 345 340 334 331 329 327 325 323 322 318 313 312 308 310 318 319 323 332 327 321 316 299 287 297 305 280 242 235 237 252 257 243 233 235 237 238 238 238 234 230 229 227 225 221 217 221 224 223 224 225 227 231 238 245 246 244 242 242 246 250
350 29 27 13 7 360 353 346 338 336 338 339 338 339 340 336 330 326 323 322 323 324 323 319 315 313 310 308 309 309 310 313 309 303 299 290 284 274 261 259 257 244 238 258 275 257 237 234 240 240 238 239 241 239 239 239 235 225 217 224 232 230 227 226 226 229 236 244 248 246 244 244 244 245
0 19 8 360 352 347 344 341 338 338 340 340 339 339 342 340 335 330 323 318 320 323 321 316 310 307 305 302 298 297 301 302 299 296 291 286 281 265 247 245 253 258 255 267 287 275 247 235 243 245 239 238 242 243 246 246 243 237 230 234 240 240 236 232 230 229 230 238 246 248 247 246 245 245
348 345 354 351 342 340 344 345 343 340 340 344 347 347 345 342 341 340 334 327 324 323 318 311 306 305 303 298 292 293 296 292 288 289 288 287 282 272 263 255 251 255 259 264 279 277 257 242 242 243 237 234 237 238 240 240 236 237 238 238 241 242 240 236 233 232 231 233 239 245 247 247 246 247
350 337 343 343 338 341 348 349 348 346 347 352 352 345 342 343 347 352 351 346 337 328 319 309 305 305 304 301 297 296 294 289 285 286 286 286 285 278 270 261 251 250 256 258 253 255 260 254 242 235 224 217 222 222 222 228 233 239 246 249 248 248 248 245 240 236 234 233 233 237 241 245 247 248
346 342 346 345 341 347 353 352 351 353 353 354 348 341 341 344 347 353 356 355 349 336 324 315 307 303 301 300 298 295 293 289 287 287 283 277 271 264 258 253 250 253 257 250 236 240 260 256 240 230 213 197 196 199 208 229 246 254 259 262 262 258 256 255 252 246 240 237 237 237 237 240 244 247
347 353 358 355 352 356 359 356 355 354 353 353 350 343 341 341 343 347 351 352 351 344 334 326 315 305 300 297 294 294 293 292 290 286 274 259 244 240 246 247 248 256 261 244 228 233 257 256 233 210 193 183 182 187 206 232 251 260 263 257 252 254 255 255 253 249 242 238 237 237 237 238 239 243
3 360 358 0 2 0 355 353 354 353 352 353 352 346 342 340 339 341 344 346 345 342 339 337 331 318 307 299 297 299 299 301 306 297 276 256 232 223 228 234 245 258 259 235 217 218 237 247 223 187 164 153 159 162 173 234 258 265 266 253 232 229 234 243 248 246 240 235 232 231 232 234 237 239
358 355 355 358 360 356 350 347 349 349 350 351 351 348 345 340 337 338 340 340 340 337 338 343 344 340 331 321 315 313 312 317 326 323 311 294 259 243 235 224 222 244 237 208 201 207 222 228 209 185 155 138 154 143 140 208 224 200 177 174 168 170 182 204 224 235 238 237 235 234 232 232 234 235
348 352 354 355 354 353 350 346 344 345 349 350 349 349 348 342 336 336 337 340 341 339 338 344 349 351 352 348 340 334 337 345 348 346 346 343 324 301 274 233 210 214 223 192 187 197 215 216 203 188 167 162 138 88 88 112 126 122 134 146 144 145 155 164 172 183 213 235 235 231 228 225 225 226
349 356 358 355 352 348 346 345 344 344 347 350 351 351 350 343 337 338 343 350 353 349 345 350 359 4 10 14 14 14 13 8 5 4 359 345 342 345 325 251 212 219 241 231 213 220 237 224 202 175 154 152 123 95 91 97 101 105 123 135 134 134 136 131 116 97 79 64 68 136 181 195 201 204
353 360 359 353 346 341 341 344 347 350 354 356 357 356 353 348 345 348 354 359 2 1 0 2 7 12 19 23 28 34 32 20 14 20 20 357 348 354 359 10 196 220 244 255 249 250 257 243 201 162 151 140 121 113 106 96 93 106 118 124 123 121 120 119 111 96 87 82 84 91 104 131 157 167
348 352 352 349 344 341 342 346 354 4 7 5 2 2 1 359 359 1 2 2 4 9 11 10 10 14 18 19 23 29 31 29 26 27 27 12 358 359 14 81 149 193 233 231 229 237 236 232 189 158 164 149 125 116 109 102 105 107 103 103 109 110 108 110 106 99 96 97 100 107 114 117 121 129
342 345 346 345 345 347 352 356 3 11 12 9 7 7 6 5 7 10 7 5 7 9 11 12 13 16 19 18 18 21 29 37 36 33 36 30 19 14 22 80 139 169 193 185 206 227 212 208 223 216 184 161 142 125 115 114 112 105 99 95 93 93 96 100 97 93 94 97 101 108 113 113 116 128
339 342 344 347 353 2 7 8 9 10 11 13 13 12 10 9 11 13 10 8 10 10 11 14 16 18 23 21 16 20 35 48 41 38 50 53 47 56 79 89 88 96 113 123 149 189 187 191 197 179 158 151 142 129 122 116 103 95 98 93 83 78 83 90 91 88 89 90 90 92 93 94 103 119
341 348 354 357 4 13 17 18 18 15 15 18 18 17 17 15 14 15 14 12 13 13 14 16 19 25 35 35 30 34 48 56 54 60 76 78 70 73 84 80 74 77 86 93 107 140 149 147 146 137 127 121 116 114 116 111 98 87 89 93 87 77 73 78 82 82 83 83 83 85 86 86 93 104
352 1 6 7 13 19 19 17 18 20 21 21 20 19 20 20 20 22 21 21 23 23 22 24 30 38 42 38 39 52 62 65 68 76 85 83 76 77 81 76 70 70 75 80 89 108 125 129 128 126 120 111 103 102 106 103 94 84 80 84 89 81 68 70 74 74 78 82 83 82 81 80 83 89
5 13 16 20 26 26 17 9 10 16 21 23 23 20 19 20 23 24 23 27 32 33 33 36 39 42 40 37 44 65 73 72 71 75 83 83 79 78 79 76 73 72 73 76 82 93 104 110 111 112 110 105 99 97 96 91 86 83 79 76 79 75 65 63 65 65 72 80 79 73 69 70 72 75
18 22 24 26 29 24 14 7 7 12 16 21 23 22 18 16 18 21 22 26 33 37 41 44 44 43 42 42 55 74 78 76 74 77 84 86 82 77 76 77 76 75 73 74 79 86 91 95 99 101 100 98 95 92 88 82 77 77 76 70 68 65 58 58 64 66 68 73 73 65 60 61 64 67
24 22 23 24 21 18 14 10 8 9 12 16 19 21 20 17 16 19 22 27 32 38 43 46 46 47 48 48 59 74 79 79 78 80 87 91 89 84 83 83 81 79 78 78 81 85 88 91 93 92 90 87 83 79 78 79 77 72 69 69 67 63 59 59 68 73 71 68 69 65 57 54 55 61
27 19 18 19 17 16 15 10 6 8 13 15 17 20 22 21 20 22 26 31 35 38 43 47 49 52 54 56 61 73 80 81 82 83 86 89 89 86 85 85 83 82 82 82 85 90 92 93 93 89 84 80 76 70 64 67 73 71 66 66 66 65 65 65 69 75 74 67 65 66 60 50 46 52
32 20 16 17 17 18 16 11 9 14 16 17 19 21 23 23 23 25 31 38 42 43 44 48 51 55 58 61 65 71 76 80 82 82 82 84 85 83 82 81 80 78 76 74 81 94 99 98 98 95 85 78 76 66 53 54 63 72 69 66 66 68 73 74 73 73 72 66 62 64 63 55 47 47
31 22 18 17 17 20 19 13 13 20 24 24 25 26 26 27 28 30 35 43 51 55 55 53 54 58 62 67 70 71 72 77 80 79 78 82 84 82 79 77 74 72 69 68 73 85 94 93 88 89 90 87 83 77 61 56 59 66 72 73 74 74 76 78 75 71 70 71 71 71 70 66 58 53
29 22 20 19 18 21 19 14 15 23 28 29 30 31 32 33 33 35 38 42 49 57 61 60 59 62 66 70 73 74 73 74 75 74 74 76 78 76 75 74 72 70 69 67 66 73 83 83 74 76 94 98 91 91 85 63 54 55 63 73 79 79 78 78 77 74 73 76 77 76 77 76 73 71
38 25 17 15 18 22 18 13 18 27 32 32 34 36 37 36 35 37 38 40 45 51 57 60 63 67 71 73 76 76 75 73 71 70 69 69 69 71 73 74 73 73 71 67 62 61 67 71 71 80 93 97 96 98 98 82 66 61 62 66 72 79 81 80 82 82 81 82 85 87 87 88 86 84
50 35 16 8 13 22 19 12 19 30 34 34 36 39 40 40 41 42 42 45 50 53 54 58 63 69 74 79 81 79 76 74 73 73 72 71 71 75 79 79 79 78 75 70 67 67 70 75 83 92 95 96 98 97 92 84 74 66 63 62 64 73 81 85 89 90 90 94 96 93 90 88 84 79
47 40 24 9 10 17 15 10 18 29 32 32 35 38 40 46 51 53 54 57 59 58 56 57 59 63 69 75 79 80 79 77 75 76 79 81 80 81 83 83 81 80 79 78 77 80 84 87 90 93 93 95 98 93 84 77 72 67 65 65 65 70 77 85 91 94 97 100 98 93 88 86 81 74
43 29 28 17 12 15 12 10 18 26 25 25 31 35 39 50 60 62 64 67 67 65 63 62 62 65 67 68 72 78 81 80 78 79 82 85 85 84 82 82 83 83 84 85 85 87 94 99 99 94 90 89 91 89 83 82 84 81 76 72 70 71 74 78 82 87 91 94 94 91 89 88 79 67
108 24 22 22 18 13 8 9 19 25 23 24 30 35 41 53 62 64 68 73 74 72 71 68 65 67 69 69 71 75 77 80 82 83 84 85 86 86 85 86 87 88 88 89 89 89 93 98 98 93 86 83 86 90 92 93 93 89 83 78 75 74 75 77 78 79 78 77 77 80 86 96 96 88
206 112 27 31 32 23 11 8 16 21 21 24 33 41 48 56 63 67 71 76 77 75 75 74 73 73 73 74 75 76 78 81 83 85 86 88 90 90 90 90 89 88 88 89 89 87 88 89 89 87 86 85 88 94 97 95 92 88 85 83 79 75 75 77 78 76 73 70 69 73 78 82 85 86
220 204 168 126 87 48 15 4 12 18 21 27 40 50 52 55 64 70 72 75 76 78 79 80 79 79 77 76 79 81 83 84 85 86 87 90 92 92 92 92 91 90 89 89 88 88 89 88 87 88 89 90 91 93 94 93 90 87 84 81 79 78 79 80 79 76 73 69 67 67 72 75 77 80